| time (UTC) | temp C | wind direction | speed KPH | gust KPH | rain 1hr cm | rain 24hr cm | rain mn cm | humidity % | barometer mb |
| 20260508164129 | 22 | 219 | 8.0 | 16.1 | 0.00 | 0.00 | 0.00 | 52 | 1012.1 |
| 20260508163627 | 22 | 101 | 4.8 | 6.4 | 0.00 | 0.00 | 0.00 | 51 | 1012.1 |
| 20260508163124 | 21 | 196 | 6.4 | 6.4 | 0.00 | 0.00 | 0.00 | 54 | 1012.1 |
| 20260508162620 | 21 | 223 | 9.7 | 11.3 | 0.00 | 0.00 | 0.00 | 52 | 1012.3 |
| 20260508162118 | 21 | 146 | 11.3 | 14.5 | 0.00 | 0.00 | 0.00 | 54 | 1012.3 |
| 20260508161614 | 21 | 189 | 9.7 | 14.5 | 0.00 | 0.00 | 0.00 | 55 | 1012.7 |
| 20260508161112 | 21 | 181 | 16.1 | 22.5 | 0.00 | 0.00 | 0.00 | 54 | 1012.6 |
| 20260508160610 | 21 | 221 | 12.9 | 24.1 | 0.00 | 0.00 | 0.00 | 55 | 1012.5 |
| 20260508160107 | 20 | 174 | 12.9 | 25.7 | 0.00 | 0.00 | 0.00 | 56 | 1012.7 |
| 20260508155604 | 20 | 208 | 8.0 | 12.9 | 0.00 | 0.00 | 0.00 | 57 | 1012.8 |
| 20260508155101 | 20 | 210 | 9.7 | 12.9 | 0.00 | 0.00 | 0.00 | 57 | 1012.8 |
| 20260508154558 | 20 | 285 | 8.0 | 11.3 | 0.00 | 0.00 | 0.00 | 58 | 1013.1 |
| 20260508154055 | 20 | 203 | 4.8 | 6.4 | 0.00 | 0.00 | 0.00 | 60 | 1013.1 |
| 20260508153551 | 20 | 136 | 8.0 | 11.3 | 0.00 | 0.00 | 0.00 | 59 | 1013.1 |
| 20260508153047 | 19 | 113 | 9.7 | 12.9 | 0.00 | 0.00 | 0.00 | 61 | 1013.1 |
| 20260508152545 | 20 | 194 | 14.5 | 17.7 | 0.00 | 0.00 | 0.00 | 59 | 1013.2 |
| 20260508152040 | 19 | 184 | 4.8 | 6.4 | 0.00 | 0.00 | 0.00 | 61 | 1013.3 |
| 20260508151537 | 19 | 136 | 12.9 | 22.5 | 0.00 | 0.00 | 0.00 | 61 | 1013.3 |
| 20260508151034 | 19 | 126 | 9.7 | 14.5 | 0.00 | 0.00 | 0.00 | 59 | 1013.4 |
| 20260508150531 | 19 | 219 | 11.3 | 14.5 | 0.00 | 0.00 | 0.00 | 60 | 1013.3 |
| 20260508150027 | 19 | 199 | 9.7 | 11.3 | 0.00 | 0.00 | 0.00 | 60 | 1013.4 |
| 20260508145524 | 18 | 223 | 11.3 | 16.1 | 0.00 | 0.00 | 0.00 | 60 | 1013.5 |
| 20260508145020 | 18 | 210 | 12.9 | 16.1 | 0.00 | 0.00 | 0.00 | 61 | 1013.3 |
| 20260508144518 | 18 | 236 | 4.8 | 9.7 | 0.00 | 0.00 | 0.00 | 63 | 1013.3 |
| 20260508144015 | 18 | 208 | 8.0 | 11.3 | 0.00 | 0.00 | 0.00 | 63 | 1013.3 |
| 20260508143513 | 18 | 215 | 6.4 | 11.3 | 0.00 | 0.00 | 0.00 | 64 | 1013.3 |
| 20260508143009 | 18 | 142 | 11.3 | 17.7 | 0.00 | 0.00 | 0.00 | 63 | 1013.3 |
| 20260508142506 | 18 | 195 | 6.4 | 6.4 | 0.00 | 0.00 | 0.00 | 64 | 1013.5 |
| 20260508142003 | 17 | 2 | 6.4 | 11.3 | 0.00 | 0.00 | 0.00 | 65 | 1013.7 |
| 20260508141459 | 17 | 185 | 3.2 | 4.8 | 0.00 | 0.00 | 0.00 | 66 | 1013.8 |
| 20260508140957 | 17 | 190 | 4.8 | 6.4 | 0.00 | 0.00 | 0.00 | 66 | 1013.8 |
| 20260508140454 | 17 | 161 | 4.8 | 6.4 | 0.00 | 0.00 | 0.00 | 67 | 1013.7 |
| 20260508135949 | 16 | 253 | 6.4 | 9.7 | 0.00 | 0.00 | 0.00 | 68 | 1014.0 |
| 20260508135446 | 16 | 208 | 14.5 | 22.5 | 0.00 | 0.00 | 0.00 | 68 | 1014.2 |
| 20260508134942 | 16 | 245 | 9.7 | 12.9 | 0.00 | 0.00 | 0.00 | 69 | 1013.9 |
| 20260508134439 | 16 | 158 | 6.4 | 6.4 | 0.00 | 0.00 | 0.00 | 69 | 1014.1 |
| 20260508133936 | 16 | 273 | 9.7 | 16.1 | 0.00 | 0.00 | 0.00 | 69 | 1014.0 |
| 20260508133434 | 15 | 235 | 9.7 | 14.5 | 0.00 | 0.00 | 0.00 | 69 | 1014.1 |
| 20260508132930 | 15 | 220 | 12.9 | 14.5 | 0.00 | 0.00 | 0.00 | 69 | 1014.2 |
| 20260508132428 | 15 | 175 | 6.4 | 12.9 | 0.00 | 0.00 | 0.00 | 69 | 1014.1 |
| 20260508131925 | 15 | 111 | 12.9 | 16.1 | 0.00 | 0.00 | 0.00 | 69 | 1014.0 |
| 20260508131420 | 15 | 195 | 8.0 | 14.5 | 0.00 | 0.00 | 0.00 | 69 | 1014.1 |
| 20260508130917 | 15 | 42 | 6.4 | 11.3 | 0.00 | 0.00 | 0.00 | 70 | 1014.0 |
| 20260508130414 | 15 | 190 | 8.0 | 11.3 | 0.00 | 0.00 | 0.00 | 69 | 1013.8 |
| 20260508125910 | 15 | 189 | 4.8 | 6.4 | 0.00 | 0.00 | 0.00 | 69 | 1013.7 |
| 20260508125406 | 15 | 201 | 12.9 | 16.1 | 0.00 | 0.00 | 0.00 | 69 | 1013.9 |
| 20260508124904 | 15 | 180 | 12.9 | 14.5 | 0.00 | 0.00 | 0.00 | 69 | 1014.0 |
| 20260508124401 | 14 | 211 | 6.4 | 9.7 | 0.00 | 0.00 | 0.00 | 69 | 1013.8 |
| 20260508123859 | 14 | 197 | 4.8 | 6.4 | 0.00 | 0.00 | 0.00 | 69 | 1013.8 |
| 20260508123357 | 14 | 202 | 3.2 | 4.8 | 0.00 | 0.00 | 0.00 | 70 | 1013.7 |
| 20260508122853 | 13 | 192 | 6.4 | 9.7 | 0.00 | 0.00 | 0.00 | 70 | 1013.5 |
| 20260508122350 | 13 | 111 | 8.0 | 11.3 | 0.00 | 0.00 | 0.00 | 69 | 1013.4 |
| 20260508121848 | 13 | 201 | 16.1 | 22.5 | 0.00 | 0.00 | 0.00 | 69 | 1013.6 |
| 20260508121346 | 13 | 179 | 4.8 | 9.7 | 0.00 | 0.00 | 0.00 | 69 | 1013.4 |
| 20260508120843 | 13 | 168 | 1.6 | 3.2 | 0.00 | 0.00 | 0.00 | 68 | 1013.6 |
| 20260508120341 | 13 | 179 | 17.7 | 20.9 | 0.00 | 0.00 | 0.00 | 68 | 1013.7 |
| 20260508115838 | 13 | 204 | 9.7 | 12.9 | 0.00 | 0.00 | 0.00 | 67 | 1013.4 |
| 20260508115335 | 13 | 182 | 6.4 | 12.9 | 0.00 | 0.00 | 0.00 | 66 | 1013.5 |
| 20260508114832 | 13 | 172 | 9.7 | 12.9 | 0.00 | 0.00 | 0.00 | 66 | 1013.5 |
| 20260508114329 | 13 | 206 | 11.3 | 16.1 | 0.00 | 0.00 | 0.00 | 65 | 1013.1 |
| 20260508113826 | 13 | 202 | 6.4 | 9.7 | 0.00 | 0.00 | 0.00 | 64 | 1013.0 |
| 20260508113324 | 13 | 195 | 9.7 | 11.3 | 0.00 | 0.00 | 0.00 | 64 | 1013.0 |
| 20260508112820 | 13 | 93 | 8.0 | 9.7 | 0.00 | 0.00 | 0.00 | 63 | 1013.0 |
| 20260508112317 | 13 | 208 | 6.4 | 6.4 | 0.00 | 0.00 | 0.00 | 63 | 1012.7 |
| 20260508111813 | 13 | 186 | 8.0 | 12.9 | 0.00 | 0.00 | 0.00 | 63 | 1012.7 |
| 20260508111311 | 13 | 152 | 9.7 | 12.9 | 0.00 | 0.00 | 0.00 | 63 | 1012.8 |
| 20260508110808 | 13 | 192 | 11.3 | 14.5 | 0.00 | 0.00 | 0.00 | 63 | 1012.8 |
| 20260508110306 | 13 | 173 | 11.3 | 14.5 | 0.00 | 0.00 | 0.00 | 64 | 1012.7 |
| 20260508105805 | 13 | 178 | 8.0 | 11.3 | 0.00 | 0.00 | 0.00 | 64 | 1012.6 |
| 20260508105305 | 13 | 188 | 9.7 | 11.3 | 0.00 | 0.00 | 0.00 | 64 | 1012.6 |
| 20260508104759 | 13 | 161 | 9.7 | 11.3 | 0.00 | 0.00 | 0.00 | 64 | 1012.7 |
| 20260508104256 | 13 | 178 | 8.0 | 11.3 | 0.00 | 0.00 | 0.00 | 64 | 1012.5 |
| 20260508103753 | 13 | 193 | 9.7 | 11.3 | 0.00 | 0.00 | 0.00 | 63 | 1012.7 |
| 20260508103250 | 13 | 165 | 6.4 | 9.7 | 0.00 | 0.00 | 0.00 | 63 | 1012.6 |
| 20260508102747 | 13 | 70 | 9.7 | 11.3 | 0.00 | 0.00 | 0.00 | 63 | 1012.6 |
| 20260508102246 | 13 | 194 | 3.2 | 4.8 | 0.00 | 0.00 | 0.00 | 62 | 1012.6 |
| 20260508101742 | 13 | 207 | 6.4 | 9.7 | 0.00 | 0.00 | 0.00 | 62 | 1012.6 |
| 20260508101240 | 13 | 189 | 9.7 | 12.9 | 0.00 | 0.00 | 0.00 | 62 | 1012.6 |
| 20260508100738 | 14 | 175 | 9.7 | 12.9 | 0.00 | 0.00 | 0.00 | 61 | 1012.5 |
| 20260508100235 | 13 | 182 | 12.9 | 16.1 | 0.00 | 0.00 | 0.00 | 61 | 1012.5 |
| 20260508095731 | 13 | 150 | 6.4 | 6.4 | 0.00 | 0.00 | 0.00 | 61 | 1012.7 |
| 20260508095229 | 13 | 112 | 3.2 | 3.2 | 0.00 | 0.00 | 0.00 | 61 | 1012.7 |
| 20260508094725 | 14 | 154 | 4.8 | 6.4 | 0.00 | 0.00 | 0.00 | 61 | 1012.7 |
| 20260508094222 | 14 | 239 | 8.0 | 11.3 | 0.00 | 0.00 | 0.00 | 61 | 1012.6 |
| 20260508093720 | 14 | 213 | 8.0 | 11.3 | 0.00 | 0.00 | 0.00 | 60 | 1012.8 |
| 20260508093217 | 14 | 158 | 3.2 | 4.8 | 0.00 | 0.00 | 0.00 | 60 | 1012.7 |
| 20260508092714 | 14 | 140 | 3.2 | 4.8 | 0.00 | 0.00 | 0.00 | 60 | 1012.6 |
| 20260508092212 | 14 | 213 | 6.4 | 9.7 | 0.00 | 0.00 | 0.00 | 60 | 1012.6 |
| 20260508091710 | 14 | 231 | 6.4 | 9.7 | 0.00 | 0.00 | 0.00 | 60 | 1012.7 |
| 20260508091207 | 14 | 151 | 4.8 | 6.4 | 0.00 | 0.00 | 0.00 | 60 | 1012.5 |
| 20260508090704 | 14 | 184 | 9.7 | 12.9 | 0.00 | 0.00 | 0.00 | 60 | 1012.5 |
| 20260508090202 | 14 | 163 | 6.4 | 6.4 | 0.00 | 0.00 | 0.00 | 60 | 1012.6 |
| 20260508085657 | 14 | 150 | 6.4 | 6.4 | 0.00 | 0.00 | 0.00 | 60 | 1012.5 |
| 20260508085155 | 14 | 211 | 9.7 | 12.9 | 0.00 | 0.00 | 0.00 | 59 | 1012.6 |
| 20260508084651 | 14 | 142 | 3.2 | 4.8 | 0.00 | 0.00 | 0.00 | 59 | 1012.8 |
| 20260508084148 | 14 | 222 | 4.8 | 4.8 | 0.00 | 0.00 | 0.00 | 59 | 1012.8 |
| 20260508083646 | 14 | 190 | 9.7 | 14.5 | 0.00 | 0.00 | 0.00 | 59 | 1012.7 |
| 20260508083143 | 14 | 166 | 3.2 | 3.2 | 0.00 | 0.00 | 0.00 | 59 | 1012.7 |
| 20260508082638 | 14 | 180 | 3.2 | 4.8 | 0.00 | 0.00 | 0.00 | 60 | 1012.9 |
| 20260508082136 | 14 | 187 | 9.7 | 11.3 | 0.00 | 0.00 | 0.00 | 60 | 1013.0 |
| 20260508081633 | 14 | 184 | 4.8 | 4.8 | 0.00 | 0.00 | 0.00 | 60 | 1012.9 |
| 20260508081129 | 14 | 216 | 6.4 | 6.4 | 0.00 | 0.00 | 0.00 | 60 | 1013.0 |
| 20260508080627 | 14 | 181 | 9.7 | 12.9 | 0.00 | 0.00 | 0.00 | 60 | 1013.1 |
| 20260508080125 | 13 | 236 | 6.4 | 6.4 | 0.00 | 0.00 | 0.00 | 60 | 1013.1 |
| 20260508075621 | 13 | 138 | 4.8 | 6.4 | 0.00 | 0.00 | 0.00 | 61 | 1013.3 |
| 20260508075118 | 13 | 167 | 6.4 | 11.3 | 0.00 | 0.00 | 0.00 | 61 | 1013.1 |
| 20260508074616 | 13 | 191 | 9.7 | 14.5 | 0.00 | 0.00 | 0.00 | 61 | 1013.1 |
| 20260508074113 | 13 | 216 | 9.7 | 11.3 | 0.00 | 0.00 | 0.00 | 61 | 1013.2 |
| 20260508073610 | 13 | 200 | 6.4 | 6.4 | 0.00 | 0.00 | 0.00 | 61 | 1013.2 |
| 20260508073108 | 13 | 126 | 4.8 | 6.4 | 0.00 | 0.00 | 0.00 | 61 | 1013.3 |
| 20260508072603 | 13 | 188 | 8.0 | 11.3 | 0.00 | 0.00 | 0.00 | 61 | 1013.3 |
| 20260508072100 | 13 | 84 | 4.8 | 6.4 | 0.00 | 0.00 | 0.00 | 61 | 1013.5 |
| 20260508071558 | 13 | 162 | 6.4 | 6.4 | 0.00 | 0.00 | 0.00 | 61 | 1013.5 |
| 20260508071056 | 13 | 214 | 4.8 | 9.7 | 0.00 | 0.00 | 0.00 | 61 | 1013.5 |
| 20260508070553 | 13 | 195 | 6.4 | 6.4 | 0.00 | 0.00 | 0.00 | 61 | 1013.4 |
| 20260508070052 | 13 | 191 | 4.8 | 4.8 | 0.00 | 0.00 | 0.00 | 61 | 1013.5 |
| 20260508065549 | 13 | 191 | 3.2 | 3.2 | 0.00 | 0.00 | 0.00 | 62 | 1013.5 |
| 20260508065047 | 13 | 117 | 3.2 | 3.2 | 0.00 | 0.00 | 0.00 | 62 | 1013.7 |
| 20260508064544 | 13 | 131 | 4.8 | 6.4 | 0.00 | 0.00 | 0.00 | 62 | 1013.6 |
| 20260508064042 | 13 | 127 | 1.6 | 4.8 | 0.00 | 0.00 | 0.00 | 62 | 1013.7 |
| 20260508063539 | 13 | 136 | 9.7 | 12.9 | 0.00 | 0.00 | 0.00 | 63 | 1013.7 |
| 20260508063037 | 13 | 87 | 3.2 | 4.8 | 0.00 | 0.00 | 0.00 | 63 | 1013.6 |
| 20260508062534 | 13 | 153 | 6.4 | 6.4 | 0.00 | 0.00 | 0.00 | 63 | 1013.8 |
| 20260508062031 | 13 | 89 | 6.4 | 6.4 | 0.00 | 0.00 | 0.00 | 62 | 1013.8 |
| 20260508061529 | 13 | 181 | 4.8 | 6.4 | 0.00 | 0.00 | 0.00 | 62 | 1013.7 |
| 20260508061025 | 13 | 125 | 3.2 | 4.8 | 0.00 | 0.00 | 0.00 | 62 | 1013.7 |
| 20260508060522 | 13 | 51 | 4.8 | 6.4 | 0.00 | 0.00 | 0.00 | 62 | 1013.8 |
| 20260508060020 | 13 | 183 | 4.8 | 6.4 | 0.00 | 0.00 | 0.00 | 61 | 1013.8 |
| 20260508055515 | 14 | 206 | 8.0 | 9.7 | 0.00 | 0.00 | 0.00 | 61 | 1013.7 |
| 20260508055012 | 14 | 104 | 3.2 | 6.4 | 0.00 | 0.00 | 0.00 | 61 | 1013.7 |
| 20260508054509 | 14 | 95 | 3.2 | 4.8 | 0.00 | 0.00 | 0.00 | 60 | 1013.9 |
| 20260508054006 | 14 | 36 | 8.0 | 11.3 | 0.00 | 0.00 | 0.00 | 60 | 1013.8 |
| 20260508053502 | 14 | 54 | 1.6 | 3.2 | 0.00 | 0.00 | 0.00 | 60 | 1014.0 |
| 20260508053001 | 14 | 45 | 3.2 | 3.2 | 0.00 | 0.00 | 0.00 | 60 | 1014.0 |
| 20260508052458 | 14 | 200 | 3.2 | 3.2 | 0.00 | 0.00 | 0.00 | 59 | 1013.9 |
| 20260508051954 | 14 | 126 | 3.2 | 3.2 | 0.00 | 0.00 | 0.00 | 60 | 1014.1 |
| 20260508051449 | 14 | 198 | 3.2 | 3.2 | 0.00 | 0.00 | 0.00 | 60 | 1014.1 |
| 20260508050946 | 14 | 84 | 1.6 | 3.2 | 0.00 | 0.00 | 0.00 | 60 | 1014.0 |
| 20260508050442 | 14 | 180 | 6.4 | 6.4 | 0.00 | 0.00 | 0.00 | 60 | 1014.2 |
| 20260508045939 | 14 | 199 | 4.8 | 4.8 | 0.00 | 0.00 | 0.00 | 60 | 1014.2 |
| 20260508045436 | 14 | 43 | 1.6 | 3.2 | 0.00 | 0.00 | 0.00 | 60 | 1014.4 |
| 20260508044934 | 14 | 77 | 4.8 | 6.4 | 0.00 | 0.00 | 0.00 | 60 | 1014.1 |
| 20260508044431 | 14 | 55 | 3.2 | 3.2 | 0.00 | 0.00 | 0.00 | 61 | 1014.4 |
| 20260508043926 | 14 | 76 | 3.2 | 3.2 | 0.00 | 0.00 | 0.00 | 61 | 1014.4 |
| 20260508043424 | 14 | 53 | 1.6 | 3.2 | 0.00 | 0.00 | 0.00 | 61 | 1014.2 |
| 20260508042920 | 14 | 71 | 4.8 | 6.4 | 0.00 | 0.00 | 0.00 | 60 | 1014.5 |
| 20260508042418 | 14 | 187 | 3.2 | 4.8 | 0.00 | 0.00 | 0.00 | 60 | 1014.5 |
| 20260508041914 | 14 | 184 | 4.8 | 4.8 | 0.00 | 0.00 | 0.00 | 60 | 1014.6 |
| 20260508041411 | 15 | 45 | 1.6 | 3.2 | 0.00 | 0.00 | 0.00 | 60 | 1014.5 |
| 20260508040907 | 14 | 74 | 1.6 | 3.2 | 0.00 | 0.00 | 0.00 | 60 | 1014.7 |
| 20260508040405 | 14 | 169 | 4.8 | 4.8 | 0.00 | 0.00 | 0.00 | 60 | 1014.7 |
| 20260508035903 | 14 | 172 | 6.4 | 6.4 | 0.00 | 0.00 | 0.00 | 60 | 1014.6 |
| 20260508035359 | 15 | 193 | 3.2 | 3.2 | 0.00 | 0.00 | 0.00 | 60 | 1014.6 |
| 20260508034856 | 15 | 66 | 1.6 | 3.2 | 0.00 | 0.00 | 0.00 | 60 | 1015.0 |
| 20260508034354 | 15 | 64 | 1.6 | 3.2 | 0.00 | 0.00 | 0.00 | 60 | 1014.8 |
| 20260508033850 | 15 | 41 | 1.6 | 1.6 | 0.00 | 0.00 | 0.00 | 60 | 1014.9 |
| 20260508033348 | 15 | 106 | 3.2 | 4.8 | 0.00 | 0.00 | 0.00 | 59 | 1014.9 |
| 20260508032846 | 15 | 102 | 3.2 | 4.8 | 0.00 | 0.00 | 0.00 | 59 | 1014.9 |
| 20260508032343 | 15 | 196 | 3.2 | 6.4 | 0.00 | 0.00 | 0.00 | 58 | 1015.1 |
| 20260508031839 | 15 | 162 | 6.4 | 12.9 | 0.00 | 0.00 | 0.00 | 59 | 1015.0 |
| 20260508031336 | 15 | 67 | 1.6 | 3.2 | 0.00 | 0.00 | 0.00 | 59 | 1015.1 |
| 20260508030832 | 15 | 87 | 4.8 | 6.4 | 0.00 | 0.00 | 0.00 | 59 | 1015.0 |
| 20260508030330 | 15 | 62 | 1.6 | 1.6 | 0.00 | 0.00 | 0.00 | 58 | 1015.0 |
| 20260508025826 | 15 | 98 | 3.2 | 3.2 | 0.00 | 0.00 | 0.00 | 58 | 1015.2 |
| 20260508025324 | 15 | 176 | 3.2 | 3.2 | 0.00 | 0.00 | 0.00 | 58 | 1014.9 |
| 20260508024820 | 15 | 151 | 6.4 | 6.4 | 0.00 | 0.00 | 0.00 | 58 | 1015.0 |
| 20260508024317 | 15 | 158 | 3.2 | 4.8 | 0.00 | 0.00 | 0.00 | 58 | 1014.9 |
| 20260508023814 | 15 | 22 | 1.6 | 3.2 | 0.00 | 0.00 | 0.00 | 58 | 1014.9 |
| 20260508023310 | 15 | 31 | 0.0 | 1.6 | 0.00 | 0.00 | 0.00 | 58 | 1014.9 |
| 20260508022807 | 15 | 53 | 1.6 | 1.6 | 0.00 | 0.00 | 0.00 | 58 | 1015.0 |
| 20260508022306 | 15 | 55 | 3.2 | 4.8 | 0.00 | 0.00 | 0.00 | 58 | 1014.8 |
| 20260508021800 | 15 | 30 | 3.2 | 3.2 | 0.00 | 0.00 | 0.00 | 58 | 1014.8 |
| 20260508021256 | 15 | 85 | 1.6 | 1.6 | 0.00 | 0.00 | 0.00 | 58 | 1014.7 |
| 20260508020752 | 15 | 49 | 1.6 | 1.6 | 0.00 | 0.00 | 0.00 | 57 | 1014.5 |
| 20260508020251 | 16 | 42 | 0.0 | 0.0 | 0.00 | 0.00 | 0.00 | 57 | 1014.5 |
| 20260508015747 | 16 | 66 | 3.2 | 3.2 | 0.00 | 0.00 | 0.00 | 55 | 1014.4 |
| 20260508015244 | 16 | 292 | 1.6 | 3.2 | 0.00 | 0.00 | 0.00 | 55 | 1014.4 |
| 20260508014741 | 16 | 185 | 3.2 | 3.2 | 0.00 | 0.00 | 0.00 | 54 | 1014.2 |
| 20260508014238 | 16 | 14 | 1.6 | 3.2 | 0.00 | 0.00 | 0.00 | 54 | 1014.1 |
| 20260508013734 | 16 | 47 | 1.6 | 3.2 | 0.00 | 0.00 | 0.00 | 54 | 1014.1 |
| 20260508013230 | 16 | 55 | 0.0 | 1.6 | 0.00 | 0.00 | 0.00 | 54 | 1014.2 |
| 20260508012728 | 16 | 34 | 0.0 | 0.0 | 0.00 | 0.00 | 0.00 | 53 | 1014.1 |
| 20260508012225 | 17 | 289 | 3.2 | 4.8 | 0.00 | 0.00 | 0.00 | 52 | 1014.0 |
| 20260508011723 | 17 | 72 | 3.2 | 3.2 | 0.00 | 0.00 | 0.00 | 52 | 1014.0 |
| 20260508011220 | 17 | 210 | 3.2 | 3.2 | 0.00 | 0.00 | 0.00 | 51 | 1014.0 |
| 20260508010716 | 17 | 201 | 3.2 | 4.8 | 0.00 | 0.00 | 0.00 | 50 | 1013.9 |
| 20260508010215 | 17 | 193 | 3.2 | 4.8 | 0.00 | 0.00 | 0.00 | 49 | 1014.0 |
| 20260508005712 | 18 | 75 | 1.6 | 3.2 | 0.00 | 0.00 | 0.00 | 48 | 1013.8 |
| 20260508005208 | 18 | 134 | 3.2 | 4.8 | 0.00 | 0.00 | 0.00 | 48 | 1014.2 |
| 20260508004703 | 18 | 42 | 4.8 | 4.8 | 0.00 | 0.00 | 0.00 | 47 | 1014.0 |
| 20260508004200 | 18 | 25 | 1.6 | 3.2 | 0.00 | 0.00 | 0.00 | 46 | 1013.8 |
| 20260508003657 | 18 | 232 | 6.4 | 9.7 | 0.00 | 0.00 | 0.00 | 45 | 1014.1 |
| 20260508003154 | 18 | 143 | 6.4 | 9.7 | 0.00 | 0.00 | 0.00 | 44 | 1013.7 |
| 20260508002650 | 18 | 241 | 6.4 | 9.7 | 0.00 | 0.00 | 0.00 | 44 | 1013.9 |
| 20260508002149 | 19 | 182 | 1.6 | 3.2 | 0.00 | 0.00 | 0.00 | 44 | 1013.7 |
| 20260508001643 | 19 | 214 | 3.2 | 4.8 | 0.00 | 0.00 | 0.00 | 43 | 1014.0 |
| 20260508001140 | 19 | 299 | 1.6 | 3.2 | 0.00 | 0.00 | 0.00 | 44 | 1014.0 |
| 20260508000636 | 20 | 233 | 1.6 | 3.2 | 0.00 | 0.00 | 0.00 | 42 | 1013.9 |
| 20260508000133 | 20 | 232 | 6.4 | 9.7 | 0.00 | 0.00 | 0.00 | 42 | 1014.1 |
| 20260507235630 | 20 | 359 | 0.0 | 0.0 | 0.00 | 0.00 | 0.00 | 42 | 1013.9 |
| 20260507235128 | 20 | 29 | 1.6 | 3.2 | 0.00 | 0.00 | 0.00 | 43 | 1014.0 |
| 20260507234624 | 20 | 181 | 6.4 | 9.7 | 0.00 | 0.00 | 0.00 | 41 | 1013.8 |
| 20260507234120 | 20 | 359 | 1.6 | 3.2 | 0.00 | 0.00 | 0.00 | 42 | 1013.9 |
| 20260507233617 | 20 | 344 | 3.2 | 4.8 | 0.00 | 0.00 | 0.00 | 42 | 1013.9 |
| 20260507233116 | 20 | 236 | 6.4 | 6.4 | 0.00 | 0.00 | 0.00 | 42 | 1013.9 |
| 20260507232612 | 20 | 201 | 6.4 | 12.9 | 0.00 | 0.00 | 0.00 | 41 | 1013.9 |
| 20260507232110 | 20 | 141 | 11.3 | 14.5 | 0.00 | 0.00 | 0.00 | 40 | 1014.1 |
| 20260507231606 | 20 | 212 | 9.7 | 16.1 | 0.00 | 0.00 | 0.00 | 41 | 1014.0 |
| 20260507231103 | 20 | 329 | 3.2 | 4.8 | 0.00 | 0.00 | 0.00 | 41 | 1014.0 |
| 20260507230559 | 20 | 319 | 3.2 | 3.2 | 0.00 | 0.00 | 0.00 | 41 | 1014.2 |
| 20260507230056 | 20 | 318 | 1.6 | 3.2 | 0.00 | 0.00 | 0.00 | 42 | 1014.4 |
| 20260507225551 | 20 | 349 | 3.2 | 4.8 | 0.00 | 0.00 | 0.00 | 42 | 1014.2 |
| 20260507225048 | 20 | 129 | 3.2 | 4.8 | 0.00 | 0.00 | 0.00 | 41 | 1014.5 |
| 20260507224543 | 20 | 348 | 3.2 | 4.8 | 0.00 | 0.00 | 0.00 | 42 | 1014.5 |
| 20260507224040 | 20 | 207 | 6.4 | 6.4 | 0.00 | 0.00 | 0.00 | 41 | 1014.5 |
| 20260507223536 | 20 | 134 | 6.4 | 9.7 | 0.00 | 0.00 | 0.00 | 40 | 1014.5 |
| 20260507223033 | 20 | 225 | 8.0 | 11.3 | 0.00 | 0.00 | 0.00 | 40 | 1014.8 |
| 20260507222531 | 20 | 3 | 6.4 | 11.3 | 0.00 | 0.00 | 0.00 | 42 | 1014.7 |
| 20260507222027 | 21 | 216 | 8.0 | 11.3 | 0.00 | 0.00 | 0.00 | 38 | 1014.8 |
| 20260507221523 | 21 | 199 | 3.2 | 4.8 | 0.00 | 0.00 | 0.00 | 40 | 1014.7 |
| 20260507221020 | 21 | 193 | 8.0 | 11.3 | 0.00 | 0.00 | 0.00 | 40 | 1014.7 |
| 20260507220518 | 21 | 4 | 0.0 | 0.0 | 0.00 | 0.00 | 0.00 | 41 | 1014.8 |
| 20260507220015 | 20 | 184 | 8.0 | 12.9 | 0.00 | 0.00 | 0.00 | 41 | 1014.6 |
| 20260507215511 | 20 | 270 | 8.0 | 11.3 | 0.00 | 0.00 | 0.00 | 40 | 1014.8 |
| 20260507215009 | 21 | 123 | 1.6 | 3.2 | 0.00 | 0.00 | 0.00 | 41 | 1015.0 |
| 20260507214505 | 21 | 329 | 3.2 | 3.2 | 0.00 | 0.00 | 0.00 | 42 | 1015.0 |
| 20260507214001 | 20 | 174 | 4.8 | 4.8 | 0.00 | 0.00 | 0.00 | 42 | 1015.1 |
| 20260507213458 | 20 | 210 | 6.4 | 11.3 | 0.00 | 0.00 | 0.00 | 40 | 1015.1 |
| 20260507212955 | 20 | 238 | 8.0 | 11.3 | 0.00 | 0.00 | 0.00 | 41 | 1015.2 |
| 20260507212450 | 20 | 151 | 9.7 | 11.3 | 0.00 | 0.00 | 0.00 | 40 | 1015.0 |
| 20260507211948 | 21 | 215 | 11.3 | 14.5 | 0.00 | 0.00 | 0.00 | 39 | 1015.1 |
| 20260507211444 | 21 | 211 | 9.7 | 14.5 | 0.00 | 0.00 | 0.00 | 42 | 1015.2 |
| 20260507210941 | 20 | 322 | 1.6 | 3.2 | 0.00 | 0.00 | 0.00 | 43 | 1015.3 |
| 20260507210438 | 20 | 12 | 4.8 | 6.4 | 0.00 | 0.00 | 0.00 | 41 | 1015.4 |
| 20260507205935 | 20 | 238 | 6.4 | 9.7 | 0.00 | 0.00 | 0.00 | 42 | 1015.6 |
| 20260507205432 | 20 | 335 | 4.8 | 9.7 | 0.00 | 0.00 | 0.00 | 40 | 1015.3 |
| 20260507204928 | 20 | 309 | 3.2 | 3.2 | 0.00 | 0.00 | 0.00 | 41 | 1015.7 |
| 20260507204424 | 20 | 233 | 4.8 | 6.4 | 0.00 | 0.00 | 0.00 | 43 | 1015.8 |
| 20260507203922 | 20 | 290 | 6.4 | 9.7 | 0.00 | 0.00 | 0.00 | 42 | 1015.9 |
| 20260507203420 | 19 | 164 | 6.4 | 11.3 | 0.00 | 0.00 | 0.00 | 43 | 1015.9 |
| 20260507202916 | 19 | 204 | 17.7 | 22.5 | 0.00 | 0.00 | 0.00 | 43 | 1016.2 |
| 20260507202413 | 20 | 96 | 6.4 | 9.7 | 0.00 | 0.00 | 0.00 | 41 | 1016.4 |
| 20260507201908 | 20 | 172 | 11.3 | 16.1 | 0.00 | 0.00 | 0.00 | 41 | 1016.3 |
| 20260507201404 | 20 | 206 | 4.8 | 11.3 | 0.00 | 0.00 | 0.00 | 43 | 1016.1 |
| 20260507200901 | 20 | 185 | 4.8 | 12.9 | 0.00 | 0.00 | 0.00 | 42 | 1016.4 |
| 20260507200356 | 20 | 317 | 3.2 | 4.8 | 0.00 | 0.00 | 0.00 | 43 | 1016.3 |
| 20260507195852 | 20 | 220 | 3.2 | 4.8 | 0.00 | 0.00 | 0.00 | 42 | 1016.6 |
| 20260507195350 | 20 | 263 | 9.7 | 14.5 | 0.00 | 0.00 | 0.00 | 41 | 1016.7 |
| 20260507194847 | 19 | 2 | 3.2 | 4.8 | 0.00 | 0.00 | 0.00 | 42 | 1016.7 |
| 20260507194344 | 20 | 346 | 9.7 | 14.5 | 0.00 | 0.00 | 0.00 | 41 | 1017.0 |
| 20260507193840 | 20 | 234 | 4.8 | 6.4 | 0.00 | 0.00 | 0.00 | 41 | 1016.8 |
| 20260507193337 | 20 | 235 | 3.2 | 3.2 | 0.00 | 0.00 | 0.00 | 42 | 1016.9 |
| 20260507192833 | 20 | 1 | 3.2 | 3.2 | 0.00 | 0.00 | 0.00 | 43 | 1016.9 |
| 20260507192330 | 20 | 198 | 4.8 | 6.4 | 0.00 | 0.00 | 0.00 | 42 | 1016.9 |
| 20260507191826 | 19 | 189 | 11.3 | 16.1 | 0.00 | 0.00 | 0.00 | 41 | 1017.0 |
| 20260507191322 | 18 | 306 | 9.7 | 12.9 | 0.00 | 0.00 | 0.00 | 42 | 1017.0 |
| 20260507190820 | 20 | 222 | 3.2 | 3.2 | 0.00 | 0.00 | 0.00 | 41 | 1016.9 |
| 20260507190318 | 19 | 279 | 3.2 | 3.2 | 0.00 | 0.00 | 0.00 | 43 | 1017.0 |
| 20260507185817 | 20 | 72 | 3.2 | 6.4 | 0.00 | 0.00 | 0.00 | 40 | 1017.0 |
| 20260507185313 | 19 | 171 | 3.2 | 4.8 | 0.00 | 0.00 | 0.00 | 41 | 1017.3 |
| 20260507184810 | 19 | 213 | 4.8 | 6.4 | 0.00 | 0.00 | 0.00 | 42 | 1017.2 |
| 20260507184308 | 20 | 310 | 1.6 | 1.6 | 0.00 | 0.00 | 0.00 | 43 | 1017.3 |
| 20260507183805 | 19 | 317 | 4.8 | 4.8 | 0.00 | 0.00 | 0.00 | 44 | 1017.3 |
| 20260507183302 | 19 | 268 | 6.4 | 9.7 | 0.00 | 0.00 | 0.00 | 42 | 1017.4 |
| 20260507182759 | 19 | 248 | 4.8 | 6.4 | 0.00 | 0.00 | 0.00 | 40 | 1017.4 |
| 20260507182254 | 19 | 344 | 3.2 | 4.8 | 0.00 | 0.00 | 0.00 | 43 | 1017.5 |
| 20260507181751 | 18 | 272 | 0.0 | 1.6 | 0.00 | 0.00 | 0.00 | 44 | 1017.3 |
| 20260507181247 | 19 | 172 | 6.4 | 9.7 | 0.00 | 0.00 | 0.00 | 41 | 1017.6 |
| 20260507180744 | 18 | 7 | 4.8 | 4.8 | 0.00 | 0.00 | 0.00 | 43 | 1017.5 |
| 20260507180241 | 18 | 180 | 9.7 | 11.3 | 0.00 | 0.00 | 0.00 | 40 | 1017.3 |
| 20260507175736 | 18 | 206 | 14.5 | 16.1 | 0.00 | 0.00 | 0.00 | 40 | 1017.9 |
| 20260507175234 | 18 | 250 | 6.4 | 9.7 | 0.00 | 0.00 | 0.00 | 41 | 1017.8 |
| 20260507174731 | 18 | 303 | 3.2 | 3.2 | 0.00 | 0.00 | 0.00 | 43 | 1017.9 |
| 20260507174229 | 18 | 146 | 8.0 | 11.3 | 0.00 | 0.00 | 0.00 | 41 | 1018.0 |
| 20260507173726 | 17 | 179 | 6.4 | 9.7 | 0.00 | 0.00 | 0.00 | 41 | 1018.0 |
| 20260507173223 | 18 | 180 | 6.4 | 6.4 | 0.00 | 0.00 | 0.00 | 44 | 1018.1 |
| 20260507172719 | 18 | 187 | 6.4 | 11.3 | 0.00 | 0.00 | 0.00 | 39 | 1018.4 |
| 20260507172216 | 18 | 7 | 3.2 | 3.2 | 0.00 | 0.00 | 0.00 | 42 | 1018.3 |
| 20260507171716 | 18 | 355 | 3.2 | 3.2 | 0.00 | 0.00 | 0.00 | 42 | 1018.6 |
| 20260507171214 | 18 | 231 | 6.4 | 12.9 | 0.00 | 0.00 | 0.00 | 41 | 1018.7 |
| 20260507170711 | 18 | 19 | 1.6 | 3.2 | 0.00 | 0.00 | 0.00 | 42 | 1018.6 |
| 20260507170208 | 18 | 64 | 4.8 | 6.4 | 0.00 | 0.00 | 0.00 | 41 | 1018.7 |
| 20260507165703 | 18 | 199 | 6.4 | 9.7 | 0.00 | 0.00 | 0.00 | 41 | 1018.9 |
| 20260507165200 | 17 | 261 | 4.8 | 4.8 | 0.00 | 0.00 | 0.00 | 40 | 1019.0 |
| 20260507164656 | 17 | 240 | 9.7 | 11.3 | 0.00 | 0.00 | 0.00 | 40 | 1019.0 |